Total_Precipitation_Accumulation
1.94 2.32 2.67 3.14 3.58 4.08 4.80 5.43 5.86 5.87 5.72 5.40 5.05 4.79 4.28 3.92 3.64 3.34 3.13 2.91 2.65 2.58 2.95 2.72 3.00 2.86 2.77 2.61 2.56 2.69 2.73 2.46 2.66 2.91 2.44 1.91 1.63 1.56 1.46 1.47 1.55 1.51 1.60
1.89 2.25 2.76 3.04 3.40 3.91 4.46 4.87 4.88 4.56 4.46 4.50 4.42 4.18 4.15 3.94 3.82 3.54 3.35 2.94 2.78 2.69 2.55 2.73 2.55 2.52 2.61 2.42 2.32 2.53 2.54 2.27 2.58 2.75 2.76 2.16 1.91 1.63 1.19 1.32 1.46 1.58 1.80
1.51 1.86 2.42 2.73 2.93 3.40 3.72 3.74 3.64 3.48 3.54 3.63 3.62 3.71 3.90 3.89 3.83 3.68 3.40 3.09 2.94 2.86 2.74 2.63 2.44 2.38 2.23 2.31 2.34 2.39 2.45 2.38 2.36 2.45 2.71 2.36 1.96 1.64 1.27 1.24 1.47 1.80 2.02
1.27 1.57 1.90 2.13 2.40 2.65 2.75 2.74 2.82 2.85 2.89 2.97 3.03 2.94 2.94 3.13 3.33 3.53 3.56 3.47 3.21 2.98 2.72 2.57 2.35 2.19 2.06 2.27 1.99 2.09 2.39 2.52 2.26 2.28 2.27 2.19 2.28 2.15 1.74 1.41 1.33 1.61 1.82
1.29 1.50 1.60 1.77 1.87 1.89 1.98 2.05 2.34 2.68 2.81 2.91 3.03 2.94 2.63 2.60 2.64 2.77 2.93 2.92 2.89 2.72 2.43 2.35 2.28 2.12 1.99 2.00 1.98 2.25 2.28 2.28 2.23 2.31 2.28 2.37 2.51 2.33 2.14 1.80 1.70 1.84 1.81
1.00 1.23 1.49 1.58 1.53 1.49 1.64 1.84 2.15 2.58 2.83 2.89 2.84 2.80 2.70 2.66 2.57 2.56 2.60 2.47 2.44 2.36 2.20 2.12 2.20 2.05 1.94 1.95 1.95 2.08 2.16 2.30 2.40 2.41 2.39 2.44 2.42 2.42 2.61 2.28 2.06 2.03 1.77
0.76 0.78 0.97 1.22 1.19 1.15 1.30 1.57 1.77 2.11 2.36 2.46 2.43 2.35 2.46 2.56 2.43 2.28 2.21 2.13 2.02 1.93 1.91 1.99 2.11 1.95 1.89 1.96 2.12 2.13 2.10 2.25 2.36 2.30 2.38 2.46 2.41 2.52 2.70 2.62 2.29 2.09 1.85
0.57 0.56 0.63 0.80 1.02 1.01 1.06 1.18 1.43 1.69 1.90 1.97 2.06 2.17 2.32 2.40 2.35 2.50 2.29 2.12 1.83 1.69 1.75 1.96 2.03 1.96 1.89 1.89 2.25 2.23 2.23 2.33 2.31 2.20 2.50 2.56 2.36 2.56 2.77 2.86 2.86 2.56 2.38
0.48 0.49 0.56 0.76 0.79 0.77 0.81 0.92 1.17 1.36 1.52 1.66 1.82 1.89 1.86 1.89 2.04 2.22 2.21 2.04 1.96 1.77 1.84 1.91 2.10 2.19 2.26 2.30 2.44 2.36 2.35 2.54 2.51 2.46 2.61 2.62 2.49 2.51 2.63 2.87 3.07 3.09 2.89
0.49 0.48 0.49 0.57 0.58 0.58 0.70 0.94 1.11 1.15 1.37 1.66 1.84 1.75 1.77 1.73 1.88 1.92 1.93 1.97 1.91 1.89 1.93 1.94 2.02 2.15 2.27 2.33 2.49 2.48 2.52 2.69 2.71 2.76 2.84 2.72 2.48 2.58 2.63 2.78 3.06 3.31 3.34
0.48 0.49 0.49 0.49 0.58 0.52 0.62 0.79 0.93 1.07 1.36 1.66 1.89 1.91 1.80 1.81 1.87 1.78 1.74 1.86 1.89 1.87 1.92 1.93 1.90 1.89 2.04 2.25 2.46 2.43 2.59 2.72 2.76 2.74 2.66 2.55 2.60 2.74 2.68 2.82 2.98 3.18 3.40
0.40 0.39 0.37 0.42 0.42 0.42 0.54 0.84 1.15 1.49 1.66 1.92 2.20 2.24 2.01 1.81 1.70 1.57 1.56 1.73 1.90 1.92 1.89 1.87 1.86 1.82 1.92 2.18 2.36 2.47 2.72 2.86 2.77 2.69 2.63 2.51 2.63 2.74 2.72 2.79 2.79 2.85 3.13
0.43 0.42 0.39 0.47 0.45 0.43 0.46 0.60 0.75 1.09 1.41 1.74 2.05 2.06 1.82 1.60 1.55 1.54 1.58 1.71 1.84 1.85 1.80 1.83 1.91 2.03 2.14 2.32 2.45 2.56 2.74 2.71 2.61 2.63 2.55 2.44 2.51 2.47 2.54 2.57 2.57 2.57 2.66
0.56 0.52 0.49 0.47 0.47 0.46 0.45 0.54 0.62 0.71 0.92 1.33 1.61 1.64 1.49 1.42 1.43 1.48 1.51 1.51 1.55 1.60 1.66 1.87 2.11 2.26 2.38 2.49 2.52 2.53 2.50 2.50 2.42 2.32 2.25 2.27 2.38 2.43 2.42 2.34 2.34 2.41 2.55
0.57 0.54 0.54 0.58 0.59 0.65 0.65 0.64 0.65 0.68 0.86 1.25 1.45 1.43 1.38 1.38 1.33 1.33 1.42 1.48 1.54 1.58 1.80 1.97 2.08 2.12 2.18 2.25 2.37 2.37 2.31 2.30 2.22 2.12 1.94 1.97 2.26 2.37 2.32 2.14 2.25 2.33 2.42
0.55 0.53 0.47 0.57 0.66 0.71 0.73 0.72 0.75 0.78 0.91 1.18 1.40 1.38 1.35 1.31 1.24 1.28 1.36 1.51 1.62 1.78 1.96 1.97 1.94 1.90 1.65 1.74 1.87 1.92 1.98 2.02 2.00 1.89 1.81 1.81 1.89 1.91 1.93 1.92 1.94 1.99 2.07
0.53 0.53 0.57 0.66 0.85 0.79 0.80 0.85 0.81 0.85 0.98 1.23 1.41 1.43 1.37 1.36 1.34 1.30 1.44 1.64 1.82 1.98 2.10 2.06 1.99 1.86 1.78 1.67 1.56 1.56 1.64 1.78 1.81 1.83 1.88 1.64 1.47 1.59 1.62 1.74 1.72 1.65 1.72
0.63 0.70 0.67 0.74 0.82 0.81 0.84 0.89 0.90 0.93 1.05 1.26 1.48 1.53 1.46 1.48 1.55 1.54 1.62 1.86 2.08 2.22 2.25 2.22 2.11 2.01 1.93 1.84 1.65 1.63 1.57 1.67 1.71 1.71 1.73 1.67 1.56 1.54 1.65 1.72 1.67 1.52 1.47
0.74 0.79 0.87 0.89 0.96 0.97 0.94 0.97 1.09 1.11 1.19 1.27 1.45 1.57 1.62 1.69 1.70 1.73 1.91 2.13 2.30 2.33 2.32 2.36 2.26 2.17 2.19 2.04 1.69 1.53 1.48 1.63 1.67 1.67 1.61 1.56 1.52 1.56 1.44 1.42 1.45 1.44 1.41
0.90 0.89 0.94 0.98 1.01 1.05 1.11 1.14 1.25 1.38 1.49 1.58 1.68 1.88 2.07 2.24 2.30 2.32 2.37 2.41 2.49 2.45 2.45 2.38 2.34 2.24 2.21 2.13 1.62 1.37 1.34 1.53 1.59 1.65 1.61 1.51 1.38 1.35 1.23 1.23 1.38 1.36 1.35
0.86 0.93 0.93 1.01 1.10 1.11 1.23 1.42 1.51 1.62 1.77 1.92 2.00 2.21 2.50 2.68 2.67 2.66 2.58 2.50 2.53 2.55 2.53 2.40 2.31 2.25 2.16 2.06 1.63 1.43 1.43 1.59 1.68 1.66 1.62 1.56 1.42 1.22 1.17 1.13 1.20 1.26 1.23
0.78 0.89 0.94 1.00 1.17 1.41 1.60 1.84 1.95 1.95 2.05 2.21 2.38 2.58 2.78 2.71 2.65 2.82 2.73 2.70 2.76 2.72 2.58 2.44 2.30 2.30 2.24 2.04 1.72 1.49 1.53 1.67 1.78 1.84 1.80 1.70 1.49 1.24 1.13 1.05 1.05 1.03 0.96
0.76 0.85 0.93 1.05 1.23 1.50 1.88 2.13 2.19 2.31 2.35 2.43 2.58 2.68 2.74 2.88 3.02 3.08 2.98 2.87 2.83 2.74 2.53 2.39 2.23 2.13 2.19 2.20 1.81 1.52 1.56 1.63 1.66 1.84 1.88 1.62 1.37 1.20 1.03 1.00 1.00 0.90 0.83
0.81 0.86 0.94 1.12 1.37 1.61 1.93 2.08 2.15 2.20 2.24 2.29 2.30 2.39 2.54 2.66 2.76 3.01 3.05 2.95 2.80 2.69 2.59 2.48 2.30 2.18 2.19 2.18 1.85 1.53 1.50 1.57 1.55 1.62 1.70 1.56 1.37 1.21 1.07 1.01 0.97 0.91 0.93
0.85 0.93 1.02 1.14 1.27 1.48 1.68 1.78 1.95 2.04 2.20 2.25 2.19 2.15 2.18 2.32 2.44 2.56 2.65 2.60 2.57 2.39 2.27 2.14 2.05 2.00 2.02 2.01 1.76 1.56 1.52 1.62 1.67 1.64 1.65 1.64 1.49 1.35 1.23 1.20 1.22 1.24 1.19
0.83 0.94 1.05 1.18 1.28 1.44 1.64 1.73 1.87 1.95 2.03 2.05 1.99 1.99 1.99 2.07 2.13 2.14 2.07 1.90 1.81 1.66 1.51 1.44 1.38 1.39 1.45 1.58 1.43 1.30 1.37 1.52 1.58 1.48 1.47 1.57 1.57 1.48 1.39 1.33 1.32 1.31 1.25